When you browse on this site, cookies collect data to enhance your experience and personalize the content and advertising you see.
Visit our Privacy Policy to learn more. By continuing to use the site, you agree to this use of cookies and data.
  • In France
  • List of Countries
  • For 7 days
  • Water Temperature
  • Weather Map
  • Weather Widgets
  • user-avatar
    Login

    Hourly Weather Boa Vista

    Today, 26 August, Monday

    Time Temperature Precipitation Wind Pressure Humidity
    00:00 +26°C° 0 mm 1 mps 754 mmHg 87%
    01:00 +24°C° 0 mm 0 mps 753 mmHg 88%
    02:00 +24°C° 0 mm 0 mps 753 mmHg 89%
    03:00 +23°C° 0 mm 0 mps 753 mmHg 90%
    04:00 +25°C° 0 mm 1 mps 753 mmHg 90%
    05:00 +25°C° 0 mm 1 mps 753 mmHg 91%
    06:00 +26°C° 0 mm 1 mps 754 mmHg 88%
    07:00 +25°C° 0 mm 0 mps 754 mmHg 84%
    08:00 +26°C° 0 mm 0 mps 755 mmHg 81%
    09:00 +30°C° 0 mm 1 mps 755 mmHg 73%
    10:00 +32°C° 0 mm 1 mps 754 mmHg 65%
    11:00 +33°C° 0 mm 1 mps 754 mmHg 58%
    12:00 +35°C° 0.2 mm 2 mps 754 mmHg 56%
    13:00 +35°C° 0.2 mm 2 mps 753 mmHg 55%
    14:00 +35°C° 0.2 mm 2 mps 752 mmHg 53%
    15:00 +35°C° 0.3 mm 2 mps 752 mmHg 58%
    16:00 +34°C° 0.3 mm 2 mps 752 mmHg 62%
    17:00 +32°C° 0.3 mm 2 mps 751 mmHg 67%
    18:00 +31°C° 0.2 mm 2 mps 752 mmHg 71%
    19:00 +29°C° 0.2 mm 2 mps 752 mmHg 76%
    20:00 +28°C° 0.2 mm 1 mps 753 mmHg 81%
    21:00 +27°C° 0 mm 1 mps 753 mmHg 82%
    22:00 +27°C° 0 mm 1 mps 753 mmHg 83%
    23:00 +27°C° 0 mm 1 mps 753 mmHg 84%

    Tomorrow, 27 August, Tuesday

    Time Temperature Precipitation Wind Pressure Humidity
    00:00 +26°C° 0 mm 1 mps 753 mmHg 85%
    01:00 +24°C° 0 mm 0 mps 753 mmHg 86%
    02:00 +24°C° 0 mm 0 mps 753 mmHg 86%
    03:00 +24°C° 0 mm 0 mps 753 mmHg 87%
    04:00 +25°C° 0 mm 1 mps 753 mmHg 89%
    05:00 +25°C° 0 mm 1 mps 753 mmHg 90%
    06:00 +26°C° 0 mm 1 mps 753 mmHg 86%
    07:00 +27°C° 0 mm 1 mps 754 mmHg 82%
    08:00 +29°C° 0 mm 1 mps 754 mmHg 78%
    09:00 +30°C° 0.1 mm 1 mps 754 mmHg 70%
    10:00 +32°C° 0.1 mm 2 mps 754 mmHg 62%
    11:00 +35°C° 0.1 mm 2 mps 754 mmHg 53%
    12:00 +35°C° 0 mm 3 mps 754 mmHg 52%
    13:00 +36°C° 0 mm 3 mps 753 mmHg 51%
    14:00 +36°C° 0 mm 3 mps 752 mmHg 51%
    15:00 +36°C° 0 mm 3 mps 752 mmHg 54%
    16:00 +35°C° 0 mm 2 mps 751 mmHg 57%
    17:00 +35°C° 0 mm 2 mps 751 mmHg 60%
    18:00 +32°C° 0 mm 1 mps 752 mmHg 62%
    19:00 +31°C° 0 mm 1 mps 752 mmHg 65%
    20:00 +27°C° 0 mm 0 mps 752 mmHg 68%
    21:00 +29°C° 0 mm 1 mps 753 mmHg 69%
    22:00 +29°C° 0 mm 1 mps 753 mmHg 69%
    23:00 +28°C° 0 mm 1 mps 753 mmHg 70%

    Day after tomorrow, 28 August, Wednesday

    Time Temperature Precipitation Wind Pressure Humidity
    00:00 +28°C° 0 mm 1 mps 753 mmHg 73%
    01:00 +27°C° 0 mm 1 mps 752 mmHg 76%
    02:00 +27°C° 0 mm 1 mps 752 mmHg 79%
    03:00 +26°C° 0.1 mm 1 mps 752 mmHg 82%
    04:00 +26°C° 0.1 mm 1 mps 752 mmHg 84%
    05:00 +25°C° 0.1 mm 1 mps 752 mmHg 86%
    06:00 +27°C° 0 mm 1 mps 753 mmHg 82%
    07:00 +28°C° 0 mm 1 mps 754 mmHg 77%
    08:00 +30°C° 0 mm 1 mps 754 mmHg 73%
    09:00 +31°C° 0 mm 2 mps 754 mmHg 66%
    10:00 +34°C° 0 mm 3 mps 754 mmHg 60%
    11:00 +35°C° 0 mm 4 mps 754 mmHg 54%
    12:00 +36°C° 0 mm 4 mps 753 mmHg 51%
    13:00 +36°C° 0 mm 3 mps 753 mmHg 49%
    14:00 +37°C° 0 mm 3 mps 752 mmHg 47%
    15:00 +36°C° 0 mm 3 mps 751 mmHg 49%
    16:00 +36°C° 0 mm 2 mps 751 mmHg 52%
    17:00 +35°C° 0 mm 2 mps 751 mmHg 55%
    18:00 +33°C° 0 mm 1 mps 751 mmHg 58%
    19:00 +31°C° 0 mm 1 mps 751 mmHg 62%
    20:00 +27°C° 0 mm 0 mps 752 mmHg 65%
    21:00 +27°C° 0 mm 0 mps 752 mmHg 66%
    22:00 +26°C° 0 mm 0 mps 752 mmHg 67%
    23:00 +26°C° 0 mm 0 mps 753 mmHg 68%

    29 August, Thursday

    Time Temperature Precipitation Wind Pressure Humidity
    00:00 +28°C° 0 mm 1 mps 752 mmHg 69%
    01:00 +28°C° 0 mm 1 mps 752 mmHg 70%
    02:00 +27°C° 0 mm 1 mps 751 mmHg 71%
    03:00 +27°C° 0 mm 1 mps 752 mmHg 74%
    04:00 +26°C° 0 mm 1 mps 752 mmHg 77%
    05:00 +26°C° 0 mm 1 mps 752 mmHg 80%
    06:00 +27°C° 0 mm 1 mps 752 mmHg 76%
    07:00 +28°C° 0 mm 2 mps 753 mmHg 73%
    08:00 +30°C° 0 mm 2 mps 754 mmHg 70%
    09:00 +31°C° 0 mm 3 mps 754 mmHg 64%
    10:00 +34°C° 0 mm 3 mps 754 mmHg 58%
    11:00 +36°C° 0 mm 4 mps 754 mmHg 53%
    12:00 +36°C° 0 mm 3 mps 753 mmHg 50%
    13:00 +37°C° 0 mm 3 mps 752 mmHg 48%
    14:00 +37°C° 0 mm 3 mps 751 mmHg 46%
    15:00 +37°C° 0 mm 3 mps 751 mmHg 49%
    16:00 +36°C° 0 mm 3 mps 751 mmHg 52%
    17:00 +35°C° 0 mm 3 mps 750 mmHg 55%
    18:00 +32°C° 0.3 mm 2 mps 751 mmHg 62%
    19:00 +30°C° 0.3 mm 2 mps 751 mmHg 69%
    20:00 +28°C° 0.3 mm 2 mps 752 mmHg 77%
    21:00 +28°C° 0 mm 2 mps 752 mmHg 77%
    22:00 +28°C° 0 mm 2 mps 752 mmHg 78%
    23:00 +27°C° 0 mm 1 mps 753 mmHg 79%

    30 August, Friday

    Time Temperature Precipitation Wind Pressure Humidity
    00:00 +27°C° 0 mm 1 mps 752 mmHg 79%
    01:00 +27°C° 0 mm 1 mps 752 mmHg 79%
    02:00 +27°C° 0 mm 1 mps 752 mmHg 80%
    03:00 +26°C° 0 mm 1 mps 752 mmHg 81%
    04:00 +26°C° 0 mm 1 mps 752 mmHg 82%
    05:00 +26°C° 0 mm 1 mps 752 mmHg 84%
    06:00 +27°C° 0 mm 2 mps 753 mmHg 81%
    07:00 +28°C° 0 mm 2 mps 753 mmHg 78%
    08:00 +29°C° 0 mm 3 mps 754 mmHg 75%
    09:00 +31°C° 0 mm 3 mps 754 mmHg 67%
    10:00 +34°C° 0 mm 3 mps 754 mmHg 60%
    11:00 +36°C° 0 mm 3 mps 754 mmHg 53%
    12:00 +36°C° 0 mm 3 mps 753 mmHg 51%
    13:00 +37°C° 0 mm 3 mps 752 mmHg 48%
    14:00 +37°C° 0 mm 2 mps 751 mmHg 46%
    15:00 +36°C° 0.1 mm 2 mps 751 mmHg 52%
    16:00 +35°C° 0.1 mm 2 mps 751 mmHg 58%
    17:00 +32°C° 0.1 mm 2 mps 750 mmHg 64%
    18:00 +31°C° 0.7 mm 2 mps 751 mmHg 71%
    19:00 +29°C° 0.7 mm 2 mps 751 mmHg 77%
    20:00 +27°C° 0.7 mm 1 mps 752 mmHg 84%
    21:00 +27°C° 0.2 mm 1 mps 752 mmHg 85%
    22:00 +27°C° 0.2 mm 1 mps 752 mmHg 85%
    23:00 +25°C° 0.2 mm 0 mps 752 mmHg 86%

    31 August, Saturday

    Time Temperature Precipitation Wind Pressure Humidity
    00:00 +27°C° 0 mm 1 mps 752 mmHg 85%
    01:00 +27°C° 0 mm 1 mps 752 mmHg 85%
    02:00 +26°C° 0 mm 1 mps 751 mmHg 84%
    03:00 +26°C° 0 mm 1 mps 752 mmHg 85%
    04:00 +26°C° 0 mm 1 mps 752 mmHg 85%
    05:00 +26°C° 0 mm 1 mps 752 mmHg 85%
    06:00 +27°C° 0.2 mm 1 mps 753 mmHg 82%
    07:00 +28°C° 0.2 mm 2 mps 753 mmHg 79%
    08:00 +29°C° 0.2 mm 2 mps 754 mmHg 75%
    09:00 +31°C° 0 mm 2 mps 754 mmHg 68%
    10:00 +34°C° 0 mm 3 mps 754 mmHg 61%
    11:00 +35°C° 0 mm 3 mps 754 mmHg 53%
    12:00 +36°C° 0.1 mm 3 mps 753 mmHg 51%
    13:00 +36°C° 0.1 mm 2 mps 752 mmHg 49%
    14:00 +37°C° 0.1 mm 2 mps 751 mmHg 47%
    15:00 +36°C° 0 mm 2 mps 751 mmHg 49%
    16:00 +36°C° 0 mm 2 mps 751 mmHg 51%
    17:00 +35°C° 0 mm 1 mps 750 mmHg 53%
    18:00 +33°C° 0 mm 1 mps 751 mmHg 58%
    19:00 +31°C° 0 mm 1 mps 751 mmHg 62%
    20:00 +30°C° 0 mm 1 mps 751 mmHg 66%
    21:00 +29°C° 0.4 mm 1 mps 751 mmHg 70%
    22:00 +28°C° 0.4 mm 1 mps 752 mmHg 74%
    23:00 +28°C° 0.4 mm 1 mps 752 mmHg 78%
    Show more